Location: Unspecified
(49.9820°N, 20.4363°E)
Time: 00:09:33
(UTC+02:00)

ISS - Pass Details

Date: 17 May 2018
Orbit: 402 x 407 km, 51.6° (Epoch: 24 May)

Event Time Altitude Azimuth Distance (km) Brightness Sun altitude
Exits shadow 01:06:30 49° 81° (E) 530 -3.2 -20.4°
Drops below altitude 10° 01:08:59 10° 74° (ENE) 1,459 -0.7 -20.3°
Sets 01:11:04 0° 74° (ENE) 2,320 0.4 -20.3°
